Time,TemperatureF,DewpointF,PressureIn,WindDirection,WindDirectionDegrees,WindSpeedMPH,WindSpeedGustMPH,Humidity,HourlyPrecipIn,Conditions,Clouds,dailyrainin,SoftwareType,DateUTC
2013-04-21 00:03:00,33.2,22.3,30.40,WNW,296,0.0,0.0,64,0.00,CLR,,0.00,WeatherDisplay:10.37,2013-04-21 04:03:00,
2013-04-21 00:04:00,33.1,22.2,30.40,WNW,296,0.0,0.0,64,0.00,CLR,,0.00,WeatherDisplay:10.37,2013-04-21 04:04:00,
2013-04-21 00:09:00,33.0,22.1,30.40,WNW,302,0.0,0.0,64,0.00,CLR,,0.00,WeatherDisplay:10.37,2013-04-21 04:09:00,
2013-04-21 00:14:00,32.9,21.7,30.40,WNW,302,0.0,0.0,63,0.00,CLR,,0.00,WeatherDisplay:10.37,2013-04-21 04:14:00,
2013-04-21 00:19:00,32.8,22.0,30.40,WNW,302,0.0,0.0,64,0.00,CLR,,0.00,WeatherDisplay:10.37,2013-04-21 04:19:00,
2013-04-21 00:24:00,32.7,21.9,30.40,NW,304,0.0,0.0,64,0.00,CLR,,0.00,WeatherDisplay:10.37,2013-04-21 04:24:00,
2013-04-21 00:30:00,32.6,21.8,30.41,NW,304,0.0,0.0,64,0.00,CLR,,0.00,WeatherDisplay:10.37,2013-04-21 04:30:00,
2013-04-21 00:35:00,32.4,21.6,30.41,WNW,291,0.0,0.0,64,0.00,CLR,,0.00,WeatherDisplay:10.37,2013-04-21 04:35:00,
2013-04-21 00:40:00,32.2,21.7,30.41,WNW,291,0.0,0.0,65,0.00,CLR,,0.00,WeatherDisplay:10.37,2013-04-21 04:40:00,
2013-04-21 00:45:00,32.0,21.6,30.41,West,263,0.5,2.3,65,0.00,CLR,,0.00,WeatherDisplay:10.37,2013-04-21 04:45:00,
2013-04-21 00:50:00,31.9,21.8,30.42,SW,219,0.0,0.0,66,0.00,CLR,,0.00,WeatherDisplay:10.37,2013-04-21 04:50:00,
2013-04-21 00:55:00,31.7,21.6,30.42,West,280,0.0,0.0,66,0.00,CLR,,0.00,WeatherDisplay:10.37,2013-04-21 04:55:00,
2013-04-21 01:01:00,31.7,21.6,30.42,WSW,241,0.0,0.0,66,0.00,CLR,,0.00,WeatherDisplay:10.37,2013-04-21 05:01:00,
2013-04-21 01:06:00,31.7,21.6,30.42,WSW,241,0.0,0.0,66,0.00,CLR,,0.00,WeatherDisplay:10.37,2013-04-21 05:06:00,
2013-04-21 01:11:00,31.5,21.8,30.43,WSW,241,0.0,0.0,67,0.00,CLR,,0.00,WeatherDisplay:10.37,2013-04-21 05:11:00,
2013-04-21 01:16:00,31.3,21.6,30.43,WSW,241,0.0,0.0,67,0.00,CLR,,0.00,WeatherDisplay:10.37,2013-04-21 05:16:00,
2013-04-21 01:22:00,31.2,21.9,30.43,WSW,241,0.0,0.0,68,0.00,CLR,,0.00,WeatherDisplay:10.37,2013-04-21 05:22:00,
2013-04-21 01:27:00,31.2,21.9,30.43,WSW,241,0.0,0.0,68,0.00,CLR,,0.00,WeatherDisplay:10.37,2013-04-21 05:27:00,
2013-04-21 01:32:00,31.0,21.7,30.43,WSW,241,0.0,0.0,68,0.00,CLR,,0.00,WeatherDisplay:10.37,2013-04-21 05:32:00,
2013-04-21 01:37:00,30.8,21.8,30.43,WSW,241,0.0,0.0,69,0.00,CLR,,0.00,WeatherDisplay:10.37,2013-04-21 05:37:00,
2013-04-21 01:42:00,30.7,22.1,30.43,WSW,241,0.0,0.0,70,0.00,CLR,,0.00,WeatherDisplay:10.37,2013-04-21 05:42:00,
2013-04-21 01:47:00,30.6,22.0,30.43,WSW,257,0.0,0.0,70,0.00,CLR,,0.00,WeatherDisplay:10.37,2013-04-21 05:47:00,
2013-04-21 01:52:00,30.6,21.6,30.44,WSW,257,0.0,0.0,69,0.00,CLR,,0.00,WeatherDisplay:10.37,2013-04-21 05:52:00,
2013-04-21 01:57:00,30.7,22.1,30.44,WSW,257,0.0,0.0,70,0.00,CLR,,0.00,WeatherDisplay:10.37,2013-04-21 05:57:00,
2013-04-21 02:03:00,30.7,22.1,30.44,WSW,256,0.0,0.0,70,0.00,CLR,,0.00,WeatherDisplay:10.37,2013-04-21 06:03:00,
2013-04-21 02:08:00,30.8,22.2,30.44,WSW,257,0.0,0.0,70,0.00,CLR,,0.00,WeatherDisplay:10.37,2013-04-21 06:08:00,
2013-04-21 02:13:00,30.8,21.8,30.44,WSW,256,0.0,0.0,69,0.00,CLR,,0.00,WeatherDisplay:10.37,2013-04-21 06:13:00,
2013-04-21 02:18:00,30.6,22.0,30.44,WSW,257,0.0,0.0,70,0.00,CLR,,0.00,WeatherDisplay:10.37,2013-04-21 06:18:00,
2013-04-21 02:23:00,30.1,21.5,30.44,WSW,256,0.0,0.0,70,0.00,CLR,,0.00,WeatherDisplay:10.37,2013-04-21 06:23:00,
2013-04-21 02:28:00,29.9,22.0,30.44,WSW,256,0.0,0.0,72,0.00,CLR,,0.00,WeatherDisplay:10.37,2013-04-21 06:28:00,
2013-04-21 02:34:00,29.7,22.1,30.44,WSW,257,0.0,0.0,73,0.00,CLR,,0.00,WeatherDisplay:10.37,2013-04-21 06:34:00,
2013-04-21 02:39:00,29.4,21.8,30.44,WSW,256,0.0,0.0,73,0.00,CLR,,0.00,WeatherDisplay:10.37,2013-04-21 06:39:00,
2013-04-21 02:44:00,29.1,21.8,30.45,WSW,256,0.0,0.0,74,0.00,CLR,,0.00,WeatherDisplay:10.37,2013-04-21 06:44:00,
2013-04-21 02:49:00,28.8,21.9,30.45,WSW,256,0.0,0.0,75,0.00,CLR,,0.00,WeatherDisplay:10.37,2013-04-21 06:49:00,
2013-04-21 02:54:00,28.7,22.1,30.45,WSW,256,0.0,0.0,76,0.00,CLR,,0.00,WeatherDisplay:10.37,2013-04-21 06:54:00,
2013-04-21 03:00:00,28.6,22.0,30.45,WSW,256,0.0,0.0,76,0.00,CLR,,0.00,WeatherDisplay:10.37,2013-04-21 07:00:00,
2013-04-21 03:05:00,28.6,22.3,30.45,WSW,257,0.0,0.0,77,0.00,CLR,,0.00,WeatherDisplay:10.37,2013-04-21 07:05:00,
2013-04-21 03:10:00,28.7,21.8,30.45,WSW,257,0.0,0.0,75,0.00,CLR,,0.00,WeatherDisplay:10.37,2013-04-21 07:10:00,
2013-04-21 03:15:00,28.8,21.9,30.45,WSW,256,0.0,0.0,75,0.00,CLR,,0.00,WeatherDisplay:10.37,2013-04-21 07:15:00,
2013-04-21 03:20:00,28.7,21.8,30.46,WSW,257,0.0,0.0,75,0.00,CLR,,0.00,WeatherDisplay:10.37,2013-04-21 07:20:00,
2013-04-21 03:25:00,28.6,21.7,30.46,WSW,257,0.0,0.0,75,0.00,CLR,,0.00,WeatherDisplay:10.37,2013-04-21 07:25:00,
2013-04-21 03:30:00,28.5,21.6,30.46,WSW,257,0.0,0.0,75,0.00,CLR,,0.00,WeatherDisplay:10.37,2013-04-21 07:30:00,
2013-04-21 03:36:00,28.4,21.8,30.46,WSW,256,0.0,0.0,76,0.00,CLR,,0.00,WeatherDisplay:10.37,2013-04-21 07:36:00,
2013-04-21 03:41:00,28.2,21.9,30.46,WSW,256,0.0,0.0,77,0.00,CLR,,0.00,WeatherDisplay:10.37,2013-04-21 07:41:00,
2013-04-21 03:46:00,28.0,22.0,30.47,WSW,257,0.0,0.0,78,0.00,CLR,,0.00,WeatherDisplay:10.37,2013-04-21 07:46:00,
2013-04-21 03:51:00,28.0,22.0,30.47,WSW,257,0.0,0.0,78,0.00,CLR,,0.00,WeatherDisplay:10.37,2013-04-21 07:51:00,
2013-04-21 03:57:00,27.9,21.9,30.47,WSW,257,0.0,0.0,78,0.00,CLR,,0.00,WeatherDisplay:10.37,2013-04-21 07:57:00,
2013-04-21 04:02:00,27.8,21.8,30.47,WSW,257,0.0,0.0,78,0.00,CLR,,0.00,WeatherDisplay:10.37,2013-04-21 08:02:00,
2013-04-21 04:07:00,27.7,22.0,30.47,WSW,257,0.0,0.0,79,0.00,CLR,,0.00,WeatherDisplay:10.37,2013-04-21 08:07:00,
2013-04-21 04:12:00,27.7,22.0,30.48,WSW,256,0.0,0.0,79,0.00,CLR,,0.00,WeatherDisplay:10.37,2013-04-21 08:12:00,
2013-04-21 04:18:00,27.6,21.9,30.48,WSW,257,0.0,0.0,79,0.00,CLR,,0.00,WeatherDisplay:10.37,2013-04-21 08:18:00,
2013-04-21 04:23:00,27.8,22.1,30.48,WSW,257,0.0,0.0,79,0.00,CLR,,0.00,WeatherDisplay:10.37,2013-04-21 08:23:00,
2013-04-21 04:28:00,28.0,22.0,30.48,WSW,256,0.0,0.0,78,0.00,CLR,,0.00,WeatherDisplay:10.37,2013-04-21 08:28:00,
2013-04-21 04:33:00,28.1,22.1,30.48,WSW,257,0.0,0.0,78,0.00,CLR,,0.00,WeatherDisplay:10.37,2013-04-21 08:33:00,
2013-04-21 04:38:00,28.3,22.3,30.49,WSW,256,0.0,0.0,78,0.00,CLR,,0.00,WeatherDisplay:10.37,2013-04-21 08:38:00,
2013-04-21 04:44:00,28.4,22.4,30.49,WSW,256,0.0,0.0,78,0.00,CLR,,0.00,WeatherDisplay:10.37,2013-04-21 08:44:00,
2013-04-21 04:49:00,28.6,22.6,30.49,WSW,257,0.0,0.0,78,0.00,CLR,,0.00,WeatherDisplay:10.37,2013-04-21 08:49:00,
2013-04-21 04:54:00,28.7,23.0,30.50,WSW,256,0.0,0.0,79,0.00,CLR,,0.00,WeatherDisplay:10.37,2013-04-21 08:54:00,
2013-04-21 04:59:00,28.8,23.1,30.50,WSW,257,0.0,0.0,79,0.00,CLR,,0.00,WeatherDisplay:10.37,2013-04-21 08:59:00,
2013-04-21 05:04:00,28.9,23.2,30.50,WSW,257,0.0,0.0,79,0.00,CLR,,0.00,WeatherDisplay:10.37,2013-04-21 09:04:00,
2013-04-21 05:09:00,28.9,23.2,30.51,WSW,257,0.0,0.0,79,0.00,CLR,,0.00,WeatherDisplay:10.37,2013-04-21 09:09:00,
2013-04-21 05:14:00,29.0,23.3,30.51,WNW,303,0.0,0.0,79,0.00,CLR,,0.00,WeatherDisplay:10.37,2013-04-21 09:14:00,
2013-04-21 05:19:00,29.2,23.5,30.51,WNW,303,0.0,0.0,79,0.00,CLR,,0.00,WeatherDisplay:10.37,2013-04-21 09:19:00,
2013-04-21 05:25:00,29.4,23.7,30.51,WNW,303,0.0,0.0,79,0.00,CLR,,0.00,WeatherDisplay:10.37,2013-04-21 09:25:00,
2013-04-21 05:30:00,29.6,23.6,30.51,WNW,303,0.0,0.0,78,0.00,CLR,,0.00,WeatherDisplay:10.37,2013-04-21 09:30:00,
2013-04-21 05:35:00,29.7,23.7,30.51,WNW,303,0.0,0.0,78,0.00,CLR,,0.00,WeatherDisplay:10.37,2013-04-21 09:35:00,
2013-04-21 05:40:00,29.8,23.8,30.52,WNW,303,0.0,0.0,78,0.00,CLR,,0.00,WeatherDisplay:10.37,2013-04-21 09:40:00,
2013-04-21 05:45:00,29.4,23.1,30.52,WNW,303,0.0,0.0,77,0.00,CLR,,0.00,WeatherDisplay:10.37,2013-04-21 09:45:00,
2013-04-21 05:50:00,29.3,23.3,30.52,WNW,303,0.0,0.0,78,0.00,CLR,,0.00,WeatherDisplay:10.37,2013-04-21 09:50:00,
2013-04-21 05:56:00,29.1,22.8,30.53,WNW,303,0.0,0.0,77,0.00,CLR,,0.00,WeatherDisplay:10.37,2013-04-21 09:56:00,
2013-04-21 06:01:00,28.9,22.6,30.53,WNW,303,0.0,0.0,77,0.00,CLR,,0.00,WeatherDisplay:10.37,2013-04-21 10:01:00,
2013-04-21 06:06:00,28.8,22.5,30.54,WNW,303,0.0,0.0,77,0.00,CLR,,0.00,WeatherDisplay:10.37,2013-04-21 10:06:00,
2013-04-21 06:11:00,28.5,22.2,30.54,WNW,303,0.0,0.0,77,0.00,CLR,,0.00,WeatherDisplay:10.37,2013-04-21 10:11:00,
2013-04-21 06:17:00,28.5,22.2,30.54,WNW,303,0.0,0.0,77,0.00,CLR,,0.00,WeatherDisplay:10.37,2013-04-21 10:17:00,
2013-04-21 06:22:00,28.3,22.0,30.54,WNW,303,0.0,0.0,77,0.00,CLR,,0.00,WeatherDisplay:10.37,2013-04-21 10:22:00,
2013-04-21 06:27:00,28.1,22.1,30.54,WNW,303,0.0,0.0,78,0.00,CLR,,0.00,WeatherDisplay:10.37,2013-04-21 10:27:00,
2013-04-21 06:32:00,28.1,22.1,30.55,WNW,303,0.0,0.0,78,0.00,CLR,,0.00,WeatherDisplay:10.37,2013-04-21 10:32:00,
2013-04-21 06:37:00,28.2,22.2,30.55,WNW,303,0.0,0.0,78,0.00,CLR,,0.00,WeatherDisplay:10.37,2013-04-21 10:37:00,
2013-04-21 06:43:00,28.0,22.0,30.56,WNW,303,0.0,0.0,78,0.00,CLR,,0.00,WeatherDisplay:10.37,2013-04-21 10:43:00,
2013-04-21 06:48:00,27.9,22.2,30.56,WNW,303,0.0,0.0,79,0.00,CLR,,0.00,WeatherDisplay:10.37,2013-04-21 10:48:00,
2013-04-21 06:53:00,27.8,22.1,30.56,WNW,303,0.0,0.0,79,0.00,CLR,,0.00,WeatherDisplay:10.37,2013-04-21 10:53:00,
2013-04-21 06:58:00,27.8,22.4,30.57,WNW,303,0.0,0.0,80,0.00,CLR,,0.00,WeatherDisplay:10.37,2013-04-21 10:58:00,
2013-04-21 07:04:00,27.9,22.5,30.57,WNW,303,0.0,0.0,80,0.00,CLR,,0.00,WeatherDisplay:10.37,2013-04-21 11:04:00,
2013-04-21 07:09:00,28.1,23.0,30.57,WNW,303,0.0,0.0,81,0.00,CLR,,0.00,WeatherDisplay:10.37,2013-04-21 11:09:00,
2013-04-21 07:14:00,28.2,23.1,30.58,WNW,303,0.0,0.0,81,0.00,CLR,,0.00,WeatherDisplay:10.37,2013-04-21 11:14:00,
2013-04-21 07:19:00,28.3,22.9,30.58,WNW,303,0.0,0.0,80,0.00,CLR,,0.00,WeatherDisplay:10.37,2013-04-21 11:19:00,
2013-04-21 07:24:00,28.4,23.0,30.58,WNW,303,0.0,0.0,80,0.00,CLR,,0.00,WeatherDisplay:10.37,2013-04-21 11:24:00,
2013-04-21 07:30:00,28.5,23.1,30.58,WNW,303,0.0,0.0,80,0.00,CLR,,0.00,WeatherDisplay:10.37,2013-04-21 11:30:00,
2013-04-21 07:35:00,28.6,22.9,30.58,WNW,303,0.0,0.0,79,0.00,CLR,,0.00,WeatherDisplay:10.37,2013-04-21 11:35:00,
2013-04-21 07:40:00,28.7,23.0,30.59,WNW,303,0.0,0.0,79,0.00,CLR,,0.00,WeatherDisplay:10.37,2013-04-21 11:40:00,
2013-04-21 07:45:00,29.0,23.3,30.59,WNW,303,0.0,0.0,79,0.00,CLR,,0.00,WeatherDisplay:10.37,2013-04-21 11:45:00,
2013-04-21 07:50:00,29.4,23.4,30.60,WNW,289,0.0,0.0,78,0.00,CLR,,0.00,WeatherDisplay:10.37,2013-04-21 11:50:00,
2013-04-21 07:55:00,29.8,23.8,30.60,WNW,288,0.0,0.0,78,0.00,CLR,,0.00,WeatherDisplay:10.37,2013-04-21 11:55:00,
2013-04-21 08:00:00,30.1,23.8,30.60,WNW,288,0.0,0.0,77,0.00,CLR,,0.00,WeatherDisplay:10.37,2013-04-21 12:00:00,
2013-04-21 08:05:00,30.4,24.1,30.60,WNW,288,0.0,0.0,77,0.00,CLR,,0.00,WeatherDisplay:10.37,2013-04-21 12:05:00,
2013-04-21 08:10:00,30.6,23.6,30.61,WNW,288,0.0,0.0,75,0.00,CLR,,0.00,WeatherDisplay:10.37,2013-04-21 12:10:00,
2013-04-21 08:16:00,30.8,23.8,30.61,SW,234,0.0,0.0,75,0.00,CLR,,0.00,WeatherDisplay:10.37,2013-04-21 12:16:00,
2013-04-21 08:21:00,30.9,23.6,30.61,SW,232,0.0,0.0,74,0.00,CLR,,0.00,WeatherDisplay:10.37,2013-04-21 12:21:00,
2013-04-21 08:26:00,31.1,24.1,30.61,SW,231,0.0,0.0,75,0.00,CLR,,0.00,WeatherDisplay:10.37,2013-04-21 12:26:00,
2013-04-21 08:31:00,31.6,24.3,30.61,South,186,0.6,2.0,74,0.00,CLR,,0.00,WeatherDisplay:10.37,2013-04-21 12:31:00,
2013-04-21 08:37:00,32.0,24.3,30.62,South,186,0.0,0.0,73,0.00,CLR,,0.00,WeatherDisplay:10.37,2013-04-21 12:37:00,
2013-04-21 08:42:00,32.3,23.9,30.62,SW,215,0.0,0.0,71,0.00,CLR,,0.00,WeatherDisplay:10.37,2013-04-21 12:42:00,
2013-04-21 08:47:00,32.3,23.3,30.63,WSW,242,0.0,0.0,69,0.00,CLR,,0.00,WeatherDisplay:10.37,2013-04-21 12:47:00,
2013-04-21 08:52:00,32.3,23.3,30.63,WSW,241,0.0,0.0,69,0.00,CLR,,0.00,WeatherDisplay:10.37,2013-04-21 12:52:00,
2013-04-21 08:57:00,32.4,23.4,30.64,WSW,241,0.0,0.0,69,0.00,CLR,,0.00,WeatherDisplay:10.37,2013-04-21 12:57:00,
2013-04-21 09:02:00,32.6,23.6,30.63,WSW,242,0.0,0.0,69,0.00,CLR,,0.00,WeatherDisplay:10.37,2013-04-21 13:02:00,
2013-04-21 09:07:00,32.7,23.3,30.63,WSW,242,0.0,0.0,68,0.00,CLR,,0.00,WeatherDisplay:10.37,2013-04-21 13:07:00,
2013-04-21 09:12:00,32.8,24.1,30.64,WSW,243,0.0,0.0,70,0.00,CLR,,0.00,WeatherDisplay:10.37,2013-04-21 13:12:00,
2013-04-21 09:18:00,32.8,23.7,30.63,WSW,238,0.0,0.0,69,0.00,CLR,,0.00,WeatherDisplay:10.37,2013-04-21 13:18:00,
2013-04-21 09:23:00,32.8,23.7,30.64,SW,223,0.0,0.0,69,0.00,CLR,,0.00,WeatherDisplay:10.37,2013-04-21 13:23:00,
2013-04-21 09:28:00,33.0,23.6,30.64,SW,225,1.2,2.0,68,0.00,CLR,,0.00,WeatherDisplay:10.37,2013-04-21 13:28:00,
2013-04-21 09:33:00,33.2,24.1,30.64,SW,221,0.0,0.0,69,0.00,CLR,,0.00,WeatherDisplay:10.37,2013-04-21 13:33:00,
2013-04-21 09:39:00,33.3,23.9,30.65,SW,221,0.0,0.0,68,0.00,CLR,,0.00,WeatherDisplay:10.37,2013-04-21 13:39:00,
2013-04-21 09:44:00,33.6,24.2,30.64,SW,221,0.0,0.0,68,0.00,CLR,,0.00,WeatherDisplay:10.37,2013-04-21 13:44:00,
2013-04-21 09:49:00,33.9,24.8,30.65,South,186,0.0,0.0,69,0.00,CLR,,0.00,WeatherDisplay:10.37,2013-04-21 13:49:00,
2013-04-21 09:54:00,33.9,24.4,30.65,WSW,241,0.0,0.0,68,0.00,CLR,,0.00,WeatherDisplay:10.37,2013-04-21 13:54:00,
2013-04-21 09:59:00,33.8,24.0,30.65,WSW,241,0.0,0.0,67,0.00,CLR,,0.00,WeatherDisplay:10.37,2013-04-21 13:59:00,
2013-04-21 10:05:00,34.1,24.6,30.65,WSW,241,0.0,0.0,68,0.00,CLR,,0.00,WeatherDisplay:10.37,2013-04-21 14:05:00,
2013-04-21 10:10:00,34.4,24.6,30.65,WSW,240,0.0,0.0,67,0.00,CLR,,0.00,WeatherDisplay:10.37,2013-04-21 14:10:00,
2013-04-21 10:15:00,34.6,24.4,30.65,SW,226,0.0,0.0,66,0.00,CLR,,0.00,WeatherDisplay:10.37,2013-04-21 14:15:00,
2013-04-21 10:20:00,34.8,24.2,30.65,WSW,242,0.0,0.0,65,0.00,CLR,,0.00,WeatherDisplay:10.37,2013-04-21 14:20:00,
2013-04-21 10:25:00,35.6,25.7,30.65,SE,143,0.0,0.0,67,0.00,CLR,,0.00,WeatherDisplay:10.37,2013-04-21 14:25:00,
2013-04-21 10:30:00,36.6,25.2,30.65,South,177,0.0,0.0,63,0.00,CLR,,0.00,WeatherDisplay:10.37,2013-04-21 14:30:00,
2013-04-21 10:35:00,36.7,24.1,30.66,WSW,237,0.0,0.0,60,0.00,CLR,,0.00,WeatherDisplay:10.37,2013-04-21 14:35:00,
2013-04-21 10:40:00,36.6,24.8,30.66,WSW,237,0.0,0.0,62,0.00,CLR,,0.00,WeatherDisplay:10.37,2013-04-21 14:40:00,
2013-04-21 10:45:00,36.4,24.2,30.66,SSE,159,0.0,1.1,61,0.00,CLR,,0.00,WeatherDisplay:10.37,2013-04-21 14:45:00,
2013-04-21 10:50:00,36.0,24.2,30.66,SSW,213,0.4,3.5,62,0.00,CLR,,0.00,WeatherDisplay:10.37,2013-04-21 14:50:00,
2013-04-21 10:55:00,35.4,24.4,30.66,SW,234,4.5,5.8,64,0.00,CLR,,0.00,WeatherDisplay:10.37,2013-04-21 14:55:00,
2013-04-21 11:00:00,35.0,24.8,30.66,SSW,202,2.4,4.0,66,0.00,CLR,,0.00,WeatherDisplay:10.37,2013-04-21 15:00:00,
2013-04-21 11:06:00,35.4,24.8,30.66,South,182,1.7,4.6,65,0.00,CLR,,0.00,WeatherDisplay:10.37,2013-04-21 15:06:00,
2013-04-21 11:11:00,36.2,25.2,30.66,South,184,3.4,4.6,64,0.00,CLR,,0.00,WeatherDisplay:10.37,2013-04-21 15:11:00,
2013-04-21 11:16:00,36.7,25.3,30.66,South,181,0.7,4.0,63,0.00,CLR,,0.00,WeatherDisplay:10.37,2013-04-21 15:16:00,
2013-04-21 11:21:00,37.3,25.5,30.66,WSW,246,3.9,5.8,62,0.00,CLR,,0.00,WeatherDisplay:10.37,2013-04-21 15:21:00,
2013-04-21 11:26:00,37.4,24.8,30.66,SSW,212,0.0,0.0,60,0.00,CLR,,0.00,WeatherDisplay:10.37,2013-04-21 15:26:00,
2013-04-21 11:31:00,37.5,24.5,30.67,WSW,238,0.0,2.3,59,0.00,CLR,,0.00,WeatherDisplay:10.37,2013-04-21 15:31:00,
2013-04-21 11:36:00,37.4,24.4,30.67,SW,224,0.8,3.5,59,0.00,CLR,,0.00,WeatherDisplay:10.37,2013-04-21 15:36:00,
2013-04-21 11:41:00,37.4,24.8,30.67,SW,217,0.8,2.0,60,0.00,CLR,,0.00,WeatherDisplay:10.37,2013-04-21 15:41:00,
2013-04-21 11:47:00,37.5,24.9,30.67,WSW,244,0.3,2.3,60,0.00,CLR,,0.00,WeatherDisplay:10.37,2013-04-21 15:47:00,
2013-04-21 11:52:00,37.7,23.8,30.67,SW,227,0.0,0.0,57,0.00,CLR,,0.00,WeatherDisplay:10.37,2013-04-21 15:52:00,
2013-04-21 11:57:00,37.7,23.8,30.67,North,351,0.1,1.1,57,0.00,CLR,,0.00,WeatherDisplay:10.37,2013-04-21 15:57:00,
2013-04-21 12:02:00,37.6,23.7,30.67,North,355,0.0,1.0,57,0.00,CLR,,0.00,WeatherDisplay:10.37,2013-04-21 16:02:00,
2013-04-21 12:07:00,37.7,24.6,30.66,WSW,242,0.0,0.0,59,0.00,CLR,,0.00,WeatherDisplay:10.37,2013-04-21 16:07:00,
2013-04-21 12:12:00,38.2,23.9,30.67,NW,304,0.0,1.0,56,0.00,CLR,,0.00,WeatherDisplay:10.37,2013-04-21 16:12:00,
2013-04-21 12:18:00,38.1,22.9,30.66,NW,311,0.4,3.5,54,0.00,CLR,,0.00,WeatherDisplay:10.37,2013-04-21 16:18:00,
2013-04-21 12:23:00,37.9,22.3,30.66,WNW,301,0.0,0.0,53,0.00,CLR,,0.00,WeatherDisplay:10.37,2013-04-21 16:23:00,
2013-04-21 12:28:00,38.0,23.3,30.66,WNW,285,0.0,0.0,55,0.00,CLR,,0.00,WeatherDisplay:10.37,2013-04-21 16:28:00,
2013-04-21 12:33:00,38.3,22.2,30.66,North,360,2.4,5.0,52,0.00,CLR,,0.00,WeatherDisplay:10.37,2013-04-21 16:33:00,
2013-04-21 12:38:00,38.4,23.2,30.66,East,83,0.0,0.0,54,0.00,CLR,,0.00,WeatherDisplay:10.37,2013-04-21 16:38:00,
2013-04-21 12:43:00,39.3,23.6,30.66,NNW,336,6.1,8.1,53,0.00,CLR,,0.00,WeatherDisplay:10.37,2013-04-21 16:43:00,
2013-04-21 12:48:00,39.1,22.5,30.66,NNW,331,0.4,5.8,51,0.00,CLR,,0.00,WeatherDisplay:10.37,2013-04-21 16:48:00,
2013-04-21 12:54:00,39.3,23.1,30.66,West,277,3.5,5.8,52,0.00,CLR,,0.00,WeatherDisplay:10.37,2013-04-21 16:54:00,
2013-04-21 12:59:00,39.5,22.8,30.66,ENE,64,0.4,3.5,51,0.00,CLR,,0.00,WeatherDisplay:10.37,2013-04-21 16:59:00,
2013-04-21 13:04:00,40.4,24.1,30.65,NW,307,0.1,1.0,52,0.00,CLR,,0.00,WeatherDisplay:10.37,2013-04-21 17:04:00,
2013-04-21 13:09:00,41.1,24.8,30.65,North,360,0.3,3.0,52,0.00,CLR,,0.00,WeatherDisplay:10.37,2013-04-21 17:09:00,
2013-04-21 13:15:00,41.2,23.9,30.66,NE,35,3.3,5.8,50,0.00,CLR,,0.00,WeatherDisplay:10.37,2013-04-21 17:15:00,
2013-04-21 13:20:00,41.5,24.2,30.65,NNE,24,0.9,3.5,50,0.00,CLR,,0.00,WeatherDisplay:10.37,2013-04-21 17:20:00,
2013-04-21 13:25:00,41.3,23.1,30.65,WSW,253,0.0,0.0,48,0.00,CLR,,0.00,WeatherDisplay:10.37,2013-04-21 17:25:00,
2013-04-21 13:30:00,41.3,24.0,30.65,ENE,71,0.8,3.5,50,0.00,CLR,,0.00,WeatherDisplay:10.37,2013-04-21 17:30:00,
2013-04-21 13:35:00,41.7,24.9,30.65,NNE,19,0.6,2.3,51,0.00,CLR,,0.00,WeatherDisplay:10.37,2013-04-21 17:35:00,
2013-04-21 13:40:00,42.3,24.5,30.65,NE,53,1.5,4.6,49,0.00,CLR,,0.00,WeatherDisplay:10.37,2013-04-21 17:40:00,
2013-04-21 13:45:00,43.0,23.6,30.65,North,10,0.7,3.5,46,0.00,CLR,,0.00,WeatherDisplay:10.37,2013-04-21 17:45:00,
2013-04-21 13:50:00,42.7,24.4,30.65,NE,43,0.8,2.0,48,0.00,CLR,,0.00,WeatherDisplay:10.37,2013-04-21 17:50:00,
2013-04-21 13:55:00,42.5,22.6,30.65,NNE,31,1.7,3.5,45,0.00,CLR,,0.00,WeatherDisplay:10.37,2013-04-21 17:55:00,
2013-04-21 14:00:00,42.0,23.2,30.65,NNE,19,1.9,4.0,47,0.00,CLR,,0.00,WeatherDisplay:10.37,2013-04-21 18:00:00,
2013-04-21 14:05:00,41.5,22.7,30.65,NE,49,0.2,3.5,47,0.00,CLR,,0.00,WeatherDisplay:10.37,2013-04-21 18:05:00,
2013-04-21 14:10:00,41.8,23.0,30.65,NE,45,2.9,4.6,47,0.00,CLR,,0.00,WeatherDisplay:10.37,2013-04-21 18:10:00,
2013-04-21 14:15:00,42.2,23.4,30.65,ESE,122,0.0,3.5,47,0.00,CLR,,0.00,WeatherDisplay:10.37,2013-04-21 18:15:00,
2013-04-21 14:21:00,43.3,24.4,30.64,North,5,0.0,0.0,47,0.00,CLR,,0.00,WeatherDisplay:10.37,2013-04-21 18:21:00,
2013-04-21 14:26:00,43.5,23.5,30.64,NE,40,4.5,9.2,45,0.00,CLR,,0.00,WeatherDisplay:10.37,2013-04-21 18:26:00,
2013-04-21 14:31:00,42.9,24.0,30.64,ENE,70,2.9,3.5,47,0.00,CLR,,0.00,WeatherDisplay:10.37,2013-04-21 18:31:00,
2013-04-21 14:36:00,42.9,24.0,30.64,NE,38,3.1,4.6,47,0.00,,,0.00,WeatherDisplay:10.37,2013-04-21 18:36:00,
2013-04-21 14:41:00,42.7,23.8,30.64,NE,36,0.0,0.0,47,0.00,,,0.00,WeatherDisplay:10.37,2013-04-21 18:41:00,
2013-04-21 14:46:00,42.5,23.2,30.64,NNE,19,2.8,4.0,46,0.00,,,0.00,WeatherDisplay:10.37,2013-04-21 18:46:00,
2013-04-21 14:51:00,42.4,23.1,30.64,NNW,327,2.4,5.0,46,0.00,,,0.00,WeatherDisplay:10.37,2013-04-21 18:51:00,
2013-04-21 14:57:00,42.2,23.4,30.64,NNE,24,1.1,5.8,47,0.00,,,0.00,WeatherDisplay:10.37,2013-04-21 18:57:00,
2013-04-21 15:02:00,41.9,23.1,30.63,WNW,298,4.4,6.9,47,0.00,,,0.00,WeatherDisplay:10.37,2013-04-21 19:02:00,
2013-04-21 15:07:00,41.9,24.6,30.63,NE,53,1.3,4.6,50,0.00,,,0.00,WeatherDisplay:10.37,2013-04-21 19:07:00,
2013-04-21 15:12:00,42.3,23.0,30.63,North,355,1.4,8.1,46,0.00,,,0.00,WeatherDisplay:10.37,2013-04-21 19:12:00,
2013-04-21 15:17:00,42.3,23.5,30.63,NE,55,3.6,4.6,47,0.00,,,0.00,WeatherDisplay:10.37,2013-04-21 19:17:00,
2013-04-21 15:22:00,43.3,24.4,30.62,NE,41,0.2,2.0,47,0.00,,,0.00,WeatherDisplay:10.37,2013-04-21 19:22:00,
2013-04-21 15:27:00,43.4,24.0,30.62,WNW,286,2.0,5.8,46,0.00,,,0.00,WeatherDisplay:10.37,2013-04-21 19:27:00,
2013-04-21 15:32:00,42.5,23.2,30.62,NNW,344,4.5,6.9,46,0.00,,,0.00,WeatherDisplay:10.37,2013-04-21 19:32:00,
2013-04-21 15:37:00,42.3,24.0,30.62,North,9,1.3,4.6,48,0.00,,,0.00,WeatherDisplay:10.37,2013-04-21 19:37:00,
2013-04-21 15:43:00,42.5,23.2,30.62,NNE,30,3.0,5.0,46,0.00,,,0.00,WeatherDisplay:10.37,2013-04-21 19:43:00,
2013-04-21 15:48:00,42.7,23.3,30.62,NE,46,0.2,2.3,46,0.00,,,0.00,WeatherDisplay:10.37,2013-04-21 19:48:00,
2013-04-21 15:53:00,43.4,24.0,30.62,NNE,15,0.8,3.5,46,0.00,,,0.00,WeatherDisplay:10.37,2013-04-21 19:53:00,
2013-04-21 15:58:00,43.1,24.7,30.62,NNW,331,3.1,5.0,48,0.00,,,0.00,WeatherDisplay:10.37,2013-04-21 19:58:00,
2013-04-21 16:03:00,42.7,23.3,30.61,NE,38,4.3,6.9,46,0.00,,,0.00,WeatherDisplay:10.37,2013-04-21 20:03:00,
2013-04-21 16:08:00,43.3,23.9,30.61,North,5,3.3,3.5,46,0.00,,,0.00,WeatherDisplay:10.37,2013-04-21 20:08:00,
2013-04-21 16:13:00,43.3,23.4,30.61,NNE,25,0.7,3.5,45,0.00,,,0.00,WeatherDisplay:10.37,2013-04-21 20:13:00,
2013-04-21 16:19:00,43.3,23.4,30.60,North,360,3.1,4.6,45,0.00,,,0.00,WeatherDisplay:10.37,2013-04-21 20:19:00,
2013-04-21 16:24:00,43.3,24.4,30.60,NNW,344,1.2,5.0,47,0.00,,,0.00,WeatherDisplay:10.37,2013-04-21 20:24:00,
2013-04-21 16:29:00,42.7,23.8,30.60,North,10,3.3,4.6,47,0.00,,,0.00,WeatherDisplay:10.37,2013-04-21 20:29:00,
2013-04-21 16:34:00,42.7,22.8,30.60,NW,325,3.4,5.8,45,0.00,,,0.00,WeatherDisplay:10.37,2013-04-21 20:34:00,
2013-04-21 16:39:00,43.3,23.9,30.60,NNE,25,2.1,4.0,46,0.00,,,0.00,WeatherDisplay:10.37,2013-04-21 20:39:00,
2013-04-21 16:44:00,43.4,24.0,30.60,ENE,67,0.7,4.6,46,0.00,,,0.00,WeatherDisplay:10.37,2013-04-21 20:44:00,
2013-04-21 16:50:00,44.1,24.1,30.60,NNE,20,2.0,4.6,45,0.00,,,0.00,WeatherDisplay:10.37,2013-04-21 20:50:00,
2013-04-21 16:55:00,44.5,24.5,30.61,NNE,19,2.0,4.6,45,0.00,,,0.00,WeatherDisplay:10.37,2013-04-21 20:55:00,
2013-04-21 17:00:00,43.9,23.4,30.60,NNE,29,3.9,4.6,44,0.00,,,0.00,WeatherDisplay:10.37,2013-04-21 21:00:00,
2013-04-21 17:05:00,44.0,24.0,30.60,NNE,12,3.2,3.5,45,0.00,,,0.00,WeatherDisplay:10.37,2013-04-21 21:05:00,
2013-04-21 17:10:00,44.3,23.7,30.60,NE,34,5.0,6.9,44,0.00,,,0.00,WeatherDisplay:10.37,2013-04-21 21:10:00,
2013-04-21 17:15:00,44.0,22.9,30.60,NNE,15,2.2,6.0,43,0.00,,,0.00,WeatherDisplay:10.37,2013-04-21 21:15:00,
2013-04-21 17:20:00,43.3,23.4,30.60,NNE,30,2.3,4.0,45,0.00,,,0.00,WeatherDisplay:10.37,2013-04-21 21:20:00,
2013-04-21 17:26:00,43.1,23.2,30.60,NE,37,0.4,2.3,45,0.00,,,0.00,WeatherDisplay:10.37,2013-04-21 21:26:00,
2013-04-21 17:31:00,43.7,23.2,30.60,NE,53,3.5,4.6,44,0.00,,,0.00,WeatherDisplay:10.37,2013-04-21 21:31:00,
2013-04-21 17:36:00,43.7,22.6,30.59,NNW,331,0.4,1.0,43,0.00,,,0.00,WeatherDisplay:10.37,2013-04-21 21:36:00,
2013-04-21 17:41:00,44.4,22.7,30.60,NE,49,0.7,4.6,42,0.00,,,0.00,WeatherDisplay:10.37,2013-04-21 21:41:00,
2013-04-21 17:47:00,45.1,22.8,30.60,NNE,24,2.7,3.5,41,0.00,,,0.00,WeatherDisplay:10.37,2013-04-21 21:47:00,
2013-04-21 17:52:00,44.0,21.8,30.60,North,355,3.3,6.9,41,0.00,,,0.00,WeatherDisplay:10.37,2013-04-21 21:52:00,
2013-04-21 17:57:00,42.8,20.1,30.60,NE,44,3.0,5.8,40,0.00,,,0.00,WeatherDisplay:10.37,2013-04-21 21:57:00,
2013-04-21 18:02:00,42.1,20.6,30.60,NNE,18,1.1,4.6,42,0.00,,,0.00,WeatherDisplay:10.37,2013-04-21 22:02:00,
2013-04-21 18:07:00,42.1,20.6,30.60,NE,56,0.5,3.5,42,0.00,,,0.00,WeatherDisplay:10.37,2013-04-21 22:07:00,
2013-04-21 18:12:00,42.3,20.2,30.60,NNE,21,2.4,4.6,41,0.00,,,0.00,WeatherDisplay:10.37,2013-04-21 22:12:00,
2013-04-21 18:17:00,41.6,19.6,30.60,NNE,33,3.5,5.8,41,0.00,,,0.00,WeatherDisplay:10.37,2013-04-21 22:17:00,
2013-04-21 18:23:00,41.1,19.7,30.60,NE,40,3.4,4.6,42,0.00,,,0.00,WeatherDisplay:10.37,2013-04-21 22:23:00,
2013-04-21 18:28:00,41.1,19.7,30.60,NE,54,2.1,3.5,42,0.00,,,0.00,WeatherDisplay:10.37,2013-04-21 22:28:00,
2013-04-21 18:33:00,41.2,20.4,30.60,NE,40,2.9,4.6,43,0.00,,,0.00,WeatherDisplay:10.37,2013-04-21 22:33:00,
2013-04-21 18:38:00,40.8,18.3,30.60,NNE,19,2.8,5.8,40,0.00,,,0.00,WeatherDisplay:10.37,2013-04-21 22:38:00,
2013-04-21 18:44:00,40.5,18.6,30.60,NE,49,4.1,5.8,41,0.00,,,0.00,WeatherDisplay:10.37,2013-04-21 22:44:00,
2013-04-21 18:49:00,40.3,18.4,30.60,NNE,33,1.3,3.5,41,0.00,,,0.00,WeatherDisplay:10.37,2013-04-21 22:49:00,
2013-04-21 18:54:00,40.3,17.9,30.60,NE,34,1.0,3.5,40,0.00,,,0.00,WeatherDisplay:10.37,2013-04-21 22:54:00,
2013-04-21 18:59:00,40.1,18.8,30.60,NW,308,0.6,1.0,42,0.00,,,0.00,WeatherDisplay:10.37,2013-04-21 22:59:00,
2013-04-21 19:04:00,39.9,18.6,30.60,NE,46,0.6,2.0,42,0.00,,,0.00,WeatherDisplay:10.37,2013-04-21 23:04:00,
2013-04-21 19:09:00,40.1,19.4,30.60,NE,37,0.6,3.5,43,0.00,,,0.00,WeatherDisplay:10.37,2013-04-21 23:09:00,
2013-04-21 19:15:00,39.7,18.5,30.60,NNE,22,0.0,0.0,42,0.00,,,0.00,WeatherDisplay:10.37,2013-04-21 23:15:00,
2013-04-21 19:20:00,39.4,18.2,30.60,NNE,26,3.6,4.6,42,0.00,,,0.00,WeatherDisplay:10.37,2013-04-21 23:20:00,
2013-04-21 19:25:00,39.1,17.9,30.60,NE,48,1.1,4.6,42,0.00,,,0.00,WeatherDisplay:10.37,2013-04-21 23:25:00,
2013-04-21 19:30:00,38.8,17.6,30.60,NE,41,2.1,4.6,42,0.00,,,0.00,WeatherDisplay:10.37,2013-04-21 23:30:00,
2013-04-21 19:35:00,38.7,18.1,30.60,NE,38,0.0,0.0,43,0.00,,,0.00,WeatherDisplay:10.37,2013-04-21 23:35:00,
2013-04-21 19:40:00,38.4,16.7,30.60,NE,47,1.9,3.5,41,0.00,,,0.00,WeatherDisplay:10.37,2013-04-21 23:40:00,
2013-04-21 19:46:00,38.1,17.5,30.60,North,10,0.0,0.0,43,0.00,,,0.00,WeatherDisplay:10.37,2013-04-21 23:46:00,
2013-04-21 19:51:00,37.8,16.7,30.61,NNE,19,0.0,0.0,42,0.00,,,0.00,WeatherDisplay:10.37,2013-04-21 23:51:00,
2013-04-21 19:56:00,37.7,17.2,30.61,NNE,19,0.0,0.0,43,0.00,,,0.00,WeatherDisplay:10.37,2013-04-21 23:56:00,
2013-04-21 20:01:00,37.6,16.0,30.61,NNE,27,0.0,0.0,41,0.00,,,0.00,WeatherDisplay:10.37,2013-04-22 00:01:00,
2013-04-21 20:06:00,37.6,16.5,30.61,NNE,30,0.0,0.0,42,0.00,,,0.00,WeatherDisplay:10.37,2013-04-22 00:06:00,
2013-04-21 20:11:00,37.4,15.2,30.61,NNE,30,0.0,0.0,40,0.00,,,0.00,WeatherDisplay:10.37,2013-04-22 00:11:00,
2013-04-21 20:17:00,37.3,15.2,30.61,NNE,30,0.0,0.0,40,0.00,,,0.00,WeatherDisplay:10.37,2013-04-22 00:17:00,
2013-04-21 20:22:00,37.2,15.6,30.61,NE,56,0.0,0.0,41,0.00,,,0.00,WeatherDisplay:10.37,2013-04-22 00:22:00,
2013-04-21 20:27:00,37.1,15.5,30.62,NE,56,0.0,0.0,41,0.00,,,0.00,WeatherDisplay:10.37,2013-04-22 00:27:00,
2013-04-21 20:32:00,37.1,15.5,30.61,NE,56,0.0,0.0,41,0.00,,,0.00,WeatherDisplay:10.37,2013-04-22 00:32:00,
2013-04-21 20:37:00,37.0,16.0,30.62,NE,56,0.0,0.0,42,0.00,,,0.00,WeatherDisplay:10.37,2013-04-22 00:37:00,
2013-04-21 20:42:00,36.8,15.3,30.62,NE,56,0.0,0.0,41,0.00,,,0.00,WeatherDisplay:10.37,2013-04-22 00:42:00,
2013-04-21 20:47:00,36.6,15.6,30.62,NE,56,0.0,0.0,42,0.00,,,0.00,WeatherDisplay:10.37,2013-04-22 00:47:00,
2013-04-21 20:52:00,36.4,16.0,30.62,NE,56,0.0,0.0,43,0.00,,,0.00,WeatherDisplay:10.37,2013-04-22 00:52:00,
2013-04-21 20:57:00,36.2,15.3,30.62,NE,56,0.0,0.0,42,0.00,,,0.00,WeatherDisplay:10.37,2013-04-22 00:57:00,
2013-04-21 21:03:00,35.9,16.6,30.61,NE,56,0.0,0.0,45,0.00,,,0.00,WeatherDisplay:10.37,2013-04-22 01:03:00,
2013-04-21 21:08:00,35.7,15.9,30.62,NE,56,0.0,0.0,44,0.00,,,0.00,WeatherDisplay:10.37,2013-04-22 01:08:00,
2013-04-21 21:13:00,35.6,15.8,30.62,NE,56,0.0,0.0,44,0.00,,,0.00,WeatherDisplay:10.37,2013-04-22 01:13:00,
2013-04-21 21:18:00,35.4,15.6,30.62,NE,56,0.0,0.0,44,0.00,,,0.00,WeatherDisplay:10.37,2013-04-22 01:18:00,
2013-04-21 21:23:00,35.3,16.0,30.62,NE,56,0.0,0.0,45,0.00,,,0.00,WeatherDisplay:10.37,2013-04-22 01:23:00,
2013-04-21 21:28:00,35.2,16.5,30.62,NE,56,0.0,0.0,46,0.00,,,0.00,WeatherDisplay:10.37,2013-04-22 01:28:00,
2013-04-21 21:34:00,35.2,16.5,30.62,NE,56,0.0,0.0,46,0.00,,,0.00,WeatherDisplay:10.37,2013-04-22 01:34:00,
2013-04-21 21:39:00,35.1,18.3,30.62,NE,56,0.0,0.0,50,0.00,,,0.00,WeatherDisplay:10.37,2013-04-22 01:39:00,
2013-04-21 21:44:00,35.0,17.3,30.63,NE,56,0.0,0.0,48,0.00,,,0.00,WeatherDisplay:10.37,2013-04-22 01:44:00,
2013-04-21 21:49:00,35.0,16.8,30.62,NE,56,0.0,0.0,47,0.00,,,0.00,WeatherDisplay:10.37,2013-04-22 01:49:00,
2013-04-21 21:54:00,35.1,16.4,30.62,NE,56,0.0,0.0,46,0.00,,,0.00,WeatherDisplay:10.37,2013-04-22 01:54:00,
2013-04-21 22:00:00,35.1,16.9,30.62,NE,56,0.0,0.0,47,0.00,,,0.00,WeatherDisplay:10.37,2013-04-22 02:00:00,
2013-04-21 22:05:00,35.0,17.3,30.62,NE,56,0.0,0.0,48,0.00,,,0.00,WeatherDisplay:10.37,2013-04-22 02:05:00,
2013-04-21 22:10:00,34.7,16.0,30.62,NE,56,0.0,0.0,46,0.00,,,0.00,WeatherDisplay:10.37,2013-04-22 02:10:00,
2013-04-21 22:15:00,34.4,17.2,30.62,NE,56,0.0,0.0,49,0.00,,,0.00,WeatherDisplay:10.37,2013-04-22 02:15:00,
2013-04-21 22:21:00,34.2,16.5,30.62,NE,56,0.0,0.0,48,0.00,,,0.00,WeatherDisplay:10.37,2013-04-22 02:21:00,
2013-04-21 22:26:00,34.0,16.8,30.62,NE,56,0.0,0.0,49,0.00,,,0.00,WeatherDisplay:10.37,2013-04-22 02:26:00,
2013-04-21 22:31:00,33.8,17.1,30.62,NE,56,0.0,0.0,50,0.00,,,0.00,WeatherDisplay:10.37,2013-04-22 02:31:00,
2013-04-21 22:36:00,33.8,16.6,30.62,NE,56,0.0,0.0,49,0.00,,,0.00,WeatherDisplay:10.37,2013-04-22 02:36:00,
2013-04-21 22:41:00,33.8,18.0,30.62,NE,56,0.0,0.0,52,0.00,,,0.00,WeatherDisplay:10.37,2013-04-22 02:41:00,
2013-04-21 22:47:00,33.9,18.1,30.62,NE,56,0.0,0.0,52,0.00,,,0.00,WeatherDisplay:10.37,2013-04-22 02:47:00,
2013-04-21 22:52:00,34.0,17.3,30.62,NE,56,0.0,0.0,50,0.00,,,0.00,WeatherDisplay:10.37,2013-04-22 02:52:00,
2013-04-21 22:57:00,34.0,17.3,30.62,NE,56,0.0,0.0,50,0.00,,,0.00,WeatherDisplay:10.37,2013-04-22 02:57:00,
2013-04-21 23:02:00,33.8,17.1,30.62,NE,56,0.0,0.0,50,0.00,,,0.00,WeatherDisplay:10.37,2013-04-22 03:02:00,
2013-04-21 23:07:00,33.6,16.9,30.61,NE,56,0.0,0.0,50,0.00,,,0.00,WeatherDisplay:10.37,2013-04-22 03:07:00,
2013-04-21 23:13:00,33.5,17.3,30.61,NE,56,0.0,0.0,51,0.00,,,0.00,WeatherDisplay:10.37,2013-04-22 03:13:00,
2013-04-21 23:18:00,33.4,16.7,30.61,ENE,57,0.0,0.0,50,0.00,,,0.00,WeatherDisplay:10.37,2013-04-22 03:18:00,
2013-04-21 23:23:00,33.3,16.6,30.61,ENE,57,0.0,0.0,50,0.00,,,0.00,WeatherDisplay:10.37,2013-04-22 03:23:00,
2013-04-21 23:28:00,33.3,17.1,30.61,ENE,57,0.0,0.0,51,0.00,,,0.00,WeatherDisplay:10.37,2013-04-22 03:28:00,
2013-04-21 23:33:00,33.3,17.5,30.61,ENE,57,0.0,0.0,52,0.00,,,0.00,WeatherDisplay:10.37,2013-04-22 03:33:00,
2013-04-21 23:39:00,33.2,17.9,30.60,ENE,57,0.0,0.0,53,0.00,,,0.00,WeatherDisplay:10.37,2013-04-22 03:39:00,
2013-04-21 23:44:00,33.1,17.8,30.60,ENE,57,0.0,0.0,53,0.00,,,0.00,WeatherDisplay:10.37,2013-04-22 03:44:00,
2013-04-21 23:49:00,33.1,18.7,30.60,NE,56,0.0,0.0,55,0.00,,,0.00,WeatherDisplay:10.37,2013-04-22 03:49:00,
2013-04-21 23:54:00,32.9,18.1,30.60,NE,56,0.0,0.0,54,0.00,,,0.00,WeatherDisplay:10.37,2013-04-22 03:54:00,
2013-04-21 23:59:00,32.7,17.9,30.60,ENE,57,0.0,0.0,54,0.00,,,0.00,WeatherDisplay:10.37,2013-04-22 03:59:00,